Regional Weather Roundup
Issued by NWS

Home | Current Version | Previous Version | Graphics & Text | Print | Product List | Glossary On
Versions: 1 2 3 4 5 6 7 8 9 10 11 12 13 14 15 16 17 18 19 20 21 22 23 24 25 26 27 28 29 30 31 32 33 34 35 36 37 38 39 40 41 42 43 44 45 46 47 48 49 50
000
ASUS43 KDMX 270507
RWRIA

WEATHER ROUNDUP FOR IOWA
NATIONAL WEATHER SERVICE DES MOINES IA
1200 AM CDT MON JUL 27 2015

NOTE: "FAIR" INDICATES FEW OR NO CLOUDS BELOW 12,000 FEET WITH NO
SIGNIFICANT WEATHER AND/OR OBSTRUCTIONS TO VISIBILITY.

* - THESE STATIONS ARE NOT NWS STATIONS...THUS NOT UNDER NWS
QUALITY CONTROL.  THEY ALSO DO NOT REPORT WEATHER SUCH
AS PRECIPITATION OR FOG.

IAZ001>003-012>014-020>022-031>034-043>046-270600-
   NORTHWEST IOWA

CITY           SKY/WX    TMP DP  RH WIND       PRES   REMARKS
CARROLL *      CLOUDY    73  73 100 SE3       29.92R
CHEROKEE *     CLOUDY    73  73 100 CALM      29.91F
DENISON *      MOCLDY    75  73  94 E6        29.89F
LE MARS *      CLOUDY    77  73  88 SE5       29.90F
ORANGE CITY *  PTCLDY    73  70  88 E3        29.91F
SHELDON *      PTCLDY    72  70  94 E5        29.91F
SIOUX CITY     CLOUDY    78  73  84 E8        29.87F HX  81
SPENCER        CLOUDY    74  70  87 E5        29.93S
STORM LAKE *   PTCLDY    73  72  94 SE6       29.93F
$$

IAZ055>058-069>071-079>083-090>094-270600-
   SOUTHWEST IOWA

CITY           SKY/WX    TMP DP  RH WIND       PRES   REMARKS
ATLANTIC *     CLOUDY    75  75 100 CALM      29.91S
AUDUBON *      CLEAR     75  72  88 CALM      29.93S
CLARINDA *     PTCLDY    79  77  94 S3        29.91F HX  83
COUNCIL BLFS *   N/A     79  77  94 SE6       29.89F HX  83
CRESTON *      CLEAR     75  73  94 SE5       29.93S
HARLAN  *      CLOUDY    73  73 100 CALM      29.93F FOG
LAMONI         MOCLDY    79  74  84 SE5       29.93R HX  82
RED OAK *      MOCLDY    79  77  94 CALM      29.89F HX  83
SHENANDOAH *   PTCLDY    79  77  94 MISG      29.89F HX  83
$$

IAZ047>049-059>061-072>074-084-270600-
   CENTRAL IOWA

CITY           SKY/WX    TMP DP  RH WIND       PRES   REMARKS
AMES           PTCLDY    75  73  93 SE5       29.92S
ANKENY *       MOCLDY    75  75 100 SE3       29.91F
CHARITON *     CLEAR     75  73  94 SE5       29.93S
DES MOINES     PTCLDY    79  72  79 SE7       29.91S HX  82
GRINNELL*      PTCLDY    73  72  94 E5        29.95R
KNOXVILLE *    CLOUDY    79  73  83 SE7       29.91S HX  82
MARSHALLTOWN   PTCLDY    73  71  93 E7        29.93R
PELLA *        PTCLDY    75  75  99 E5        29.94R
PERRY *          N/A     75  73  94 SE3       29.92S
$$

IAZ004>006-015-016-023>025-035-036-270600-
   NORTH CENTRAL IOWA

CITY           SKY/WX    TMP DP  RH WIND       PRES   REMARKS
ALGONA *       CLEAR     75  73  94 SE6       29.95R
CLARION *      CLEAR     73  72  94 SE7       29.94R
ESTHERVILLE    CLOUDY    70  69  97 CALM      29.94R
FORT DODGE *   CLOUDY    73  70  88 SE3       29.94S
MASON CITY     MOCLDY    73  71  93 E9        29.97R
FOREST CITY *  CLEAR     72  72 100 E5        29.96R
IOWA FALLS *     N/A     72  70  94 E3        29.95S
$$

IAZ007>011-017>019-026>030-037>042-050>054-066-270600-
   NORTHEAST IOWA

CITY           SKY/WX    TMP DP  RH WIND       PRES   REMARKS
CEDAR RAPIDS   PTCLDY    72  72 100 SE5       29.95R
CHARLES CITY * PTCLDY    73  72  94 E7        29.97S
CLINTON *      MOCLDY    68  64  88 E7        29.98R
DUBUQUE        MOCLDY    69  66  90 E6        29.98R
MONTICELLO *   CLEAR     70  68  94 E5        29.97R
OELWEIN *      MOCLDY    72  68  88 SE6       29.98R
WATERLOO       PTCLDY    74  71  91 E7        29.94R
$$

IAZ064-065-067-068-078-270600-
   EAST CENTRAL IOWA

CITY           SKY/WX    TMP DP  RH WIND       PRES   REMARKS
DAVENPORT      MOCLDY    70  67  90 E7        29.96R
IOWA CITY      CLEAR     75  71  87 E3        29.96R
MT. PLEASANT * CLEAR     75  72  88 E3        29.94R
MUSCATINE *    CLEAR     73  72  94 CALM      29.95R
QUAD CITIES    PTCLDY    71  68  90 E6        29.94R
$$

IAZ062-063-075>077-085>089-095>099-270600-
   SOUTHEAST IOWA

CITY           SKY/WX    TMP DP  RH WIND       PRES   REMARKS
BURLINGTON     CLEAR     75  73  93 E5        29.93R
FAIRFIELD *    PTCLDY    75  72  88 E3        29.94R
FORT MADISON * CLEAR     73  72  94 CALM      29.95R
KEOKUK *       CLEAR     75  73  94 CALM      29.93R
OSKALOOSA *    MOCLDY    73  72  94 CALM      29.94R
CENTERVILLE *  CLEAR     75  73  94 E3        29.95R
OTTUMWA        PTCLDY    76  74  93 E6        29.92R
WASHINGTON *   CLEAR     72  72 100 E5        29.96R
$$

ABBREVIATIONS USED IN REMARKS
   TC - TEMPERATURES IN CELSIUS
  WCI - WIND CHILL INDEX
   HX - HEAT INDEX
  VSB - VISIBILITY
$$




USA.gov is the U.S. government's official web portal to all federal, state and local government web resources and services.